Location: Ku?niki
(51.4449°N, 17.8974°E)
Time: 08:45:57
(UTC+00:00)

EO-79 - Pass Details

Date: 02 July 2022
Orbit: 588 x 603 km, 98.0° (Epoch: 09 August)

Event Time Altitude Azimuth Distance (km) Brightness Sun altitude
Rises 23:39:36 0° 25° (NNE) 2,858 ? -14.9°
Reaches altitude 10° 23:42:11 10° 40° (NE) 1,952 ? -14.8°
Maximum altitude 23:45:31 22° 92° (E) 1,324 ? -14.7°
Enters shadow 23:48:36 11° 142° (SE) 1,871 ? -14.6°
